Location: Unspecified
(0.0000°N, 0.0000°E)
Time: 03:04:59
(UTC+01:00)

Centaur D-1AR AC-41 - Visible Passes

Search period start: 23 November 2014 00:00
Search period end: 03 December 2014 00:00
Orbit: 641 x 36201 km, 21.3° (Epoch: 21 November)

Date Brightness Start Highest point End Pass type
(mag) Time Alt. Az. Time Alt. Az. Time Alt. Az.
23 Nov 9.0 00:00:00 42° SE 23:59:30 42° SE 00:43:37 10° ESE visible
23 Nov 9.8 18:28:17 10° ESE 20:17:00 17° ESE 21:25:34 10° ESE visible
24 Nov 10.3 00:42:22 10° W 01:17:00 12° W 02:01:57 10° W visible
24 Nov 5.5 21:07:24 10° WNW 07:06:30 75° SSE 07:12:42 10° ENE visible
25 Nov 8.0 18:27:35 10° WNW 19:25:37 87° NE 04:40:55 10° E visible
26 Nov 7.3 15:55:07 10° NW 23:04:31 66° SSE 02:04:57 10° ESE visible
27 Nov 6.0 13:25:06 10° NNW 21:25:51 37° ESE 13:50:15 10° ENE visible
28 Nov 10.0 22:38:14 10° W 23:59:29 28° W 03:10:20 10° WSW visible
29 Nov 7.5 19:44:50 10° WNW 21:16:06 69° WSW 05:55:33 10° E visible
30 Nov 8.0 17:09:16 10° WNW 17:38:08 75° NE 03:22:31 10° ESE visible
01 Dec 6.7 14:38:10 10° NW 22:30:16 55° SE 00:42:56 10° ESE visible
02 Dec 9.6 17:36:12 10° ESE 20:12:03 22° ESE 21:36:30 10° ESE visible
